BREEZE-M R/B, 40346

Orbit data source: Space-Track

BREEZE-M R/B, 40346 is space debris originally from a launch on Mon, 15 Dec 2014 UTC launched from the Tyuratam Missile And Space Complex (TTMTR). Debris objects in space refer to the collection of defunct objects orbiting the Earth. Examples of debris include non-operational satellites, rocket bodies, and fragments generated from explosions, collisions, or faulty payload assembly.

Loading next visibility...
Identifier
40346, 2014-082B
Orbit
Active
Country
Flag of CISCIS
Related business
Manufacturer
Khrunichev
Mission
Spacecraft
Bus & Motor
BRIZ, Unknown motor
Mass
~1,600 kg wet, 1,600 kg dry
Launch date (UTC)
2014-12-15 (12 years ago)
Launch vehicle
Unknown
Launch site
Tyuratam Missile And Space Complex (TTMTR)
Object type
Payload
Rocket body
Debris
Shape & HBR
Cyl, 2.4 m
Radar Cross Section
15.135 m², Medium (>0.1 m² and < 1m²)

Expand to show TLE details & history
Last TLE update: 14 hours ago

TLE from 14 hours ago
0 BREEZE-M R/B
1 40346U 14082B   26263.53095910 -.00000145  00000-0  00000-0 0  9994
2 40346   8.8455  50.2643 0662651 192.1677 166.2717  1.11335807 47626
Epoch: 2026-09-20T12:44Z
TLE epoch observation values (Epoch: 2026-09-20T12:44:34.866Z)
Latitude
Longitude
-140.23557°
Altitude
35,478.173 km
Speed
2.985 km/s
True Right ascension
03h 21m 20s
True Declination
0° 00' 00"
Sunlit
Object was in daylight at epoch
Visualization orbit readout
Latitude
Unknown
Longitude
Unknown
Altitude
Unknown
Speed
Unknown
Apparent Right ascension
Unknown
Apparent Declination
Unknown
Sunlit
N/A
Visualization observer readout
Local Sidereal Time
19:46:30
Azimuth
Unknown
Elevation
Unknown
Doppler factor
Unknown
Orbital elements
Apogee altitude
35,551.658 km
Perigee altitude
30,340.042 km
Semi-major axis
39,323.987 km
Eccentricity
0.06627
Inclination
8.8455°
RAAN
50.2643°
Arg. of periapsis
192.1677°
True anomaly
167.93896°
Mean anomaly
166.2717°
Eccentric anomaly
167.11814°
Mean motion
0.27833 °/min
Orbital period
1,293.44 mins
BSTAR
0
Loading maneuver chart data...
Computing Atmospheric mass density...
Loading historical data...
Loading historical data...
Loading historical data...
Loading historical data...
Loading historical data...
Loading historical data...
Loading historical data...
Other satellites on launch #82 in the year 2014 (2014-12-15 UTC)

Documentation

Showing up to 5 results
|